Wetbulb
52.84 52.90 53.10 53.00 53.12 53.26 53.37 53.61 53.84 53.81 53.75 53.87 53.87 53.97 53.84 53.51 52.44 44.98 39.29 44.05 48.21 54.74 51.88 47.08 48.27 46.34 46.81 44.63 46.58 48.42 38.73 35.18 39.12 41.98 43.83 48.03 47.76 50.63 52.44 55.33 56.52 58.37 56.44 59.19 61.71
52.42 52.51 52.59 52.91 52.93 52.92 53.05 53.42 53.61 53.37 53.42 53.62 53.83 53.99 53.55 53.31 44.08 39.18 48.02 52.26 53.77 52.97 45.64 42.92 42.12 44.96 39.59 42.47 43.87 40.58 34.51 34.33 42.04 45.07 45.72 47.86 48.05 48.69 51.39 50.55 50.00 52.23 57.13 60.53 60.83
51.89 52.08 52.43 52.55 52.50 52.71 53.08 53.18 53.04 53.11 53.44 53.56 53.64 53.65 53.45 48.93 35.74 38.22 50.24 54.02 54.29 50.91 46.23 45.42 45.45 44.44 39.37 40.97 39.84 39.75 33.71 36.67 40.16 43.88 46.42 47.46 47.19 49.79 47.98 45.88 49.31 49.38 54.18 58.86 60.01
51.57 51.79 52.05 52.01 52.16 52.37 52.75 52.87 52.96 53.10 53.47 53.36 53.21 53.37 52.19 43.64 29.07 41.83 51.02 52.37 53.68 49.56 45.90 43.36 41.98 39.56 37.28 34.39 39.36 34.54 37.60 39.12 40.65 42.81 42.78 44.83 48.91 47.84 47.73 47.99 51.14 51.58 56.55 57.27 58.38
51.41 51.62 51.55 51.57 52.04 52.47 52.80 52.80 52.83 53.39 53.43 53.09 52.85 52.56 45.23 36.89 37.36 45.84 51.44 50.06 46.31 47.60 44.13 42.01 39.34 37.90 34.29 35.63 36.75 34.34 34.83 37.92 40.95 42.69 43.41 47.88 47.24 47.49 46.94 49.16 54.75 56.59 57.37 57.41 59.18
51.34 51.39 51.49 51.66 51.88 52.23 52.47 52.48 53.11 53.44 52.90 52.41 52.46 51.74 41.16 32.15 44.97 46.33 45.73 46.05 45.26 45.43 43.97 44.00 40.90 41.26 36.07 35.99 34.43 35.97 35.95 36.66 38.43 41.96 42.53 44.38 45.95 48.42 48.11 50.75 49.55 54.84 56.34 57.19 58.01
51.18 51.17 51.26 51.36 51.69 52.02 52.09 52.44 53.13 52.42 51.78 51.74 52.38 48.07 40.56 37.52 46.23 46.84 47.27 46.21 47.49 47.77 44.10 46.13 44.64 40.41 39.58 35.58 39.13 37.21 31.95 34.57 37.26 41.08 40.45 48.12 43.79 43.23 48.05 48.83 46.99 48.89 50.60 52.72 57.47
50.83 50.98 50.94 50.92 51.36 51.68 51.92 52.73 52.35 50.84 51.17 51.54 52.74 43.70 35.98 45.99 46.48 46.35 47.52 47.05 49.31 49.18 47.43 47.60 46.64 41.40 38.57 39.68 36.36 31.60 33.40 29.54 38.44 39.94 40.88 47.01 39.33 45.44 48.43 47.93 46.53 47.37 49.15 50.11 50.62
50.65 50.71 50.79 50.92 51.18 51.49 51.99 52.12 49.94 49.12 50.51 52.10 43.34 39.03 33.90 46.26 40.88 44.61 46.71 45.18 47.49 47.64 47.44 47.74 44.82 39.00 38.98 32.40 30.25 31.20 27.62 31.18 34.11 42.10 43.51 44.94 41.69 46.53 48.12 48.03 47.29 47.26 48.98 50.37 51.32
50.43 50.62 50.69 50.91 51.32 51.43 51.04 48.64 47.70 44.84 43.68 45.43 42.74 33.77 37.53 35.66 40.50 43.04 46.70 47.65 44.20 43.85 41.37 41.27 39.41 34.53 33.48 30.68 21.78 26.04 31.10 32.74 34.91 42.77 42.97 40.10 41.78 46.12 48.37 47.20 47.00 48.33 48.36 49.62 50.93
50.34 50.40 50.61 50.97 50.77 50.78 43.14 34.58 31.51 30.00 35.09 30.79 31.60 32.60 35.65 39.26 43.00 43.87 45.48 44.14 43.62 40.75 32.81 37.32 33.10 28.59 30.02 32.17 32.14 30.89 30.38 35.69 40.41 43.34 39.02 40.65 41.49 43.74 46.85 48.20 47.49 47.00 48.99 48.13 49.75
50.11 50.13 50.33 50.21 50.57 48.95 39.36 34.40 33.08 34.44 28.70 34.39 35.86 35.89 37.86 39.29 37.47 41.03 44.69 38.89 37.39 33.78 35.97 30.21 30.51 34.86 35.13 34.26 32.62 32.34 32.65 34.39 39.70 42.25 39.10 39.82 39.61 43.25 45.05 46.48 47.63 47.18 47.92 48.46 47.71
49.84 49.40 49.62 50.78 49.26 42.18 37.26 36.01 41.73 38.90 28.99 30.65 32.56 32.80 35.15 37.17 35.87 38.00 41.13 38.35 35.25 33.78 33.19 24.81 33.97 35.16 35.16 33.88 33.05 33.85 34.07 33.51 35.58 40.37 40.66 39.04 36.99 39.83 43.91 45.84 47.04 48.46 48.38 49.40 48.68
49.15 49.27 49.44 48.77 39.36 38.05 35.27 40.64 41.61 36.52 15.58 25.99 28.85 33.38 35.72 36.34 33.50 40.18 41.95 37.96 34.01 31.78 32.88 30.43 35.77 36.81 36.22 32.78 31.80 31.04 36.76 36.53 37.01 36.47 31.77 37.44 27.16 34.39 38.45 42.20 44.49 46.19 47.03 48.14 48.20
49.04 48.93 48.66 45.57 36.45 33.86 37.70 40.91 38.92 31.86 9.63 26.36 28.65 37.76 35.83 34.22 34.51 35.49 39.53 36.75 31.56 30.76 30.06 29.42 31.85 30.89 30.51 30.61 32.24 32.52 38.35 37.61 36.92 33.77 33.91 30.01 28.46 30.00 35.75 34.32 35.46 36.77 37.92 39.96 42.27
48.27 48.32 46.81 40.51 37.47 37.87 40.20 34.56 31.63 17.33 10.72 22.43 27.84 28.60 29.63 30.94 32.20 34.36 34.59 36.82 35.35 30.07 29.84 28.99 33.01 33.25 32.60 34.00 33.26 35.27 34.95 33.68 31.81 31.20 25.77 27.78 27.98 26.35 28.44 30.76 34.15 35.84 36.32 37.87 40.36
48.00 48.23 43.42 39.49 32.63 39.27 37.01 30.39 17.04 11.43 21.45 16.59 23.73 27.49 27.24 26.98 29.42 29.49 29.23 28.39 27.81 19.77 19.24 26.98 28.48 32.33 34.44 31.27 35.99 33.82 29.44 21.03 20.54 20.76 22.01 27.75 25.46 25.99 31.36 32.74 33.03 33.60 34.99 36.95 39.92
47.79 47.74 43.84 40.96 39.40 37.11 31.33 21.74 10.20 7.34 8.33 23.69 26.21 26.48 23.71 26.64 27.69 27.12 26.38 22.96 30.14 28.86 19.48 18.58 18.95 29.11 33.54 31.50 29.19 29.36 27.34 19.49 13.68 16.97 21.60 27.33 21.65 25.74 32.87 34.17 34.97 36.07 36.38 38.31 38.94
46.43 37.32 37.79 38.81 38.99 33.38 25.36 9.41 11.75 9.56 21.85 24.41 24.31 17.75 16.86 25.54 24.98 24.11 20.99 21.15 29.16 31.81 24.48 22.97 18.50 30.24 31.83 32.77 30.81 28.97 24.18 28.30 21.24 13.21 18.45 21.21 25.56 30.73 32.92 33.91 34.12 34.36 35.55 35.98 37.46
35.57 33.66 34.56 38.64 34.87 29.33 19.21 17.24 11.16 21.78 27.24 25.84 14.22 18.67 8.56 14.40 19.35 18.32 20.92 25.39 26.26 30.07 32.66 30.59 18.58 27.79 31.27 32.21 32.16 28.87 29.96 23.53 21.74 10.69 10.72 19.38 20.61 22.25 28.12 30.30 32.10 32.37 32.65 34.30 36.51
33.99 26.87 33.54 37.47 31.77 24.49 13.87 8.37 10.86 24.72 27.69 24.83 19.82 11.96 19.19 14.34 13.42 17.76 20.10 25.55 25.65 26.91 30.30 30.70 25.07 23.54 28.40 30.29 29.38 28.76 26.59 25.83 24.52 22.37 16.60 15.12 18.83 26.26 28.23 30.77 30.81 31.17 32.26 32.93 34.66
30.16 18.73 33.29 33.05 19.10 7.74 8.51 9.64 26.52 26.18 27.95 25.80 24.28 24.31 21.29 21.55 17.32 17.18 20.31 23.84 27.30 25.73 26.31 32.00 29.23 19.96 25.99 30.58 31.62 30.47 27.52 26.11 19.96 19.56 20.54 20.83 19.15 29.64 32.09 32.56 32.72 32.73 33.52 34.48 34.67
25.33 22.29 33.09 30.81 13.45 9.37 19.40 16.08 23.21 26.13 26.82 26.07 23.28 25.81 25.99 23.07 14.75 22.67 19.88 28.10 28.48 27.37 26.00 31.34 19.84 10.88 17.02 22.77 28.34 28.20 30.20 29.98 27.38 24.95 20.84 16.65 18.69 28.82 32.32 31.54 31.84 31.77 32.66 33.70 33.81
23.32 18.30 21.94 24.90 21.50 16.11 15.65 10.29 14.37 27.39 27.59 28.24 26.93 26.92 23.34 20.88 18.80 17.00 22.93 26.62 28.74 28.43 32.86 31.77 24.28 18.88 15.60 19.40 24.74 27.15 28.99 29.95 26.69 18.46 21.44 21.70 22.77 28.45 29.76 28.49 29.25 30.45 31.56 32.13 32.50
18.76 17.96 19.59 17.12 15.96 18.19 16.51 16.20 15.98 16.58 25.86 27.67 24.41 25.19 21.85 15.47 18.72 15.03 18.61 23.81 26.81 28.47 27.05 22.22 11.77 19.14 22.72 21.66 23.37 25.65 26.65 28.51 27.62 26.14 22.03 23.66 25.41 27.47 28.39 27.36 28.35 29.59 30.54 30.76 31.11
23.78 21.98 21.28 12.44 20.58 18.44 18.98 12.87 20.23 22.15 22.95 21.20 19.66 25.22 23.21 18.84 20.81 16.80 22.90 21.06 21.26 24.49 23.15 24.15 12.59 15.15 10.46 18.91 18.76 21.08 23.99 24.60 26.41 29.33 29.76 29.50 26.95 28.12 28.11 26.78 26.64 28.43 29.34 29.45 29.83
28.41 29.36 25.09 23.75 19.57 16.50 15.14 16.95 21.39 25.06 25.94 27.05 25.26 24.54 22.56 23.67 24.98 25.84 25.73 25.58 25.25 22.96 17.64 15.52 8.44 4.41 4.68 8.15 10.02 7.11 15.98 22.64 23.42 24.83 26.11 23.71 26.53 27.62 26.24 27.68 27.77 27.88 28.74 29.03 29.77
MSLP
1023.24 1023.11 1023.01 1022.80 1022.64 1022.45 1022.25 1021.93 1021.67 1021.44 1021.24 1020.93 1020.48 1020.21 1019.95 1019.46 1019.35 1019.28 1018.98 1018.78 1018.67 1018.13 1018.07 1018.04 1018.01 1018.08 1017.84 1017.87 1017.59 1017.03 1016.45 1014.35 1013.10 1012.92 1012.81 1012.11 1012.12 1011.89 1011.75 1011.96 1012.25 1012.38 1012.71 1012.82 1013.55
1023.36 1023.16 1022.94 1022.70 1022.58 1022.44 1022.16 1021.92 1021.62 1021.40 1021.08 1020.80 1020.46 1020.22 1019.93 1019.61 1019.73 1019.22 1018.55 1018.46 1018.17 1018.09 1018.24 1018.32 1018.23 1018.18 1018.28 1018.07 1017.72 1017.31 1016.26 1014.66 1013.63 1013.32 1013.05 1012.82 1012.01 1011.85 1012.09 1012.38 1012.58 1012.64 1012.82 1013.40 1013.65
1023.36 1023.20 1022.99 1022.73 1022.60 1022.31 1022.08 1021.85 1021.54 1021.21 1020.94 1020.63 1020.20 1020.18 1019.88 1019.83 1019.91 1018.94 1018.21 1018.03 1017.84 1018.11 1018.37 1018.49 1018.50 1018.57 1018.61 1018.18 1017.74 1017.22 1016.29 1015.24 1014.75 1014.32 1014.00 1013.23 1012.27 1011.98 1012.27 1012.70 1012.32 1012.42 1012.79 1013.48 1013.46
1023.32 1023.10 1022.93 1022.79 1022.61 1022.31 1021.96 1021.60 1021.43 1021.00 1020.69 1020.48 1020.16 1019.94 1019.84 1020.19 1020.01 1018.47 1018.02 1018.00 1017.85 1017.97 1018.26 1018.34 1018.53 1018.74 1018.64 1018.35 1017.82 1017.41 1016.13 1015.76 1015.24 1014.74 1015.17 1014.48 1012.92 1012.28 1012.51 1012.73 1012.38 1012.21 1012.40 1013.32 1013.35
1023.30 1023.06 1022.88 1022.70 1022.47 1022.28 1021.94 1021.58 1021.19 1020.87 1020.48 1020.32 1020.04 1020.15 1020.17 1020.24 1019.27 1018.03 1018.01 1018.14 1018.09 1018.19 1018.32 1018.39 1018.49 1018.45 1018.26 1017.97 1017.68 1017.09 1016.14 1015.77 1015.36 1014.82 1015.16 1015.07 1013.06 1012.20 1012.67 1012.96 1012.87 1012.18 1012.53 1013.27 1013.50
1023.22 1023.04 1022.82 1022.59 1022.35 1021.96 1021.76 1021.31 1020.98 1020.63 1020.14 1019.97 1019.75 1020.20 1019.97 1019.79 1018.32 1018.14 1018.30 1018.00 1017.82 1017.86 1017.77 1018.05 1018.17 1018.33 1018.39 1017.98 1017.62 1016.92 1016.52 1015.95 1015.54 1014.71 1015.15 1014.23 1012.70 1012.10 1013.14 1013.13 1013.54 1012.90 1013.14 1013.57 1013.74
1023.10 1022.91 1022.73 1022.51 1022.20 1021.86 1021.47 1021.11 1020.37 1020.17 1019.78 1019.60 1019.57 1020.07 1020.11 1019.08 1018.26 1018.24 1018.18 1017.89 1017.89 1017.77 1017.73 1017.71 1018.02 1018.40 1018.24 1017.79 1017.45 1017.02 1016.68 1015.80 1014.93 1014.68 1014.46 1013.36 1013.13 1012.76 1013.20 1013.39 1013.88 1013.70 1013.91 1014.04 1014.00
1023.08 1022.94 1022.63 1022.30 1022.04 1021.62 1021.25 1020.69 1020.03 1019.70 1019.56 1019.51 1019.54 1020.23 1019.62 1018.29 1018.13 1018.25 1017.79 1017.89 1017.80 1017.72 1017.91 1017.89 1018.20 1018.42 1018.29 1017.82 1017.51 1017.04 1016.65 1015.36 1013.34 1014.23 1013.81 1012.68 1012.72 1012.75 1013.41 1013.24 1013.77 1013.87 1014.12 1014.39 1014.73
1023.05 1022.78 1022.51 1022.28 1021.82 1021.45 1020.80 1020.20 1019.87 1019.47 1019.40 1019.39 1020.07 1020.11 1019.12 1017.85 1017.88 1017.87 1017.95 1018.08 1017.89 1018.03 1018.10 1018.02 1018.28 1018.26 1017.84 1017.82 1017.49 1016.77 1015.63 1014.15 1014.10 1013.11 1012.72 1011.66 1012.27 1013.07 1012.97 1013.27 1013.92 1014.29 1014.04 1014.21 1014.44
1022.89 1022.67 1022.41 1022.10 1021.74 1021.26 1020.39 1020.00 1019.75 1019.63 1019.71 1019.77 1020.34 1020.66 1019.14 1018.65 1018.32 1018.16 1018.10 1018.06 1017.95 1018.24 1018.33 1018.26 1018.01 1018.24 1018.27 1017.76 1017.25 1016.73 1014.57 1012.81 1012.00 1011.87 1012.51 1011.96 1012.50 1012.58 1013.20 1013.21 1013.93 1014.43 1014.53 1014.89 1014.48
1022.75 1022.61 1022.35 1022.08 1021.70 1021.23 1020.82 1020.25 1020.76 1020.77 1020.64 1021.18 1021.23 1020.73 1019.87 1019.02 1018.37 1018.26 1018.26 1018.12 1018.12 1018.13 1018.56 1018.46 1018.40 1018.14 1017.92 1017.76 1017.40 1016.89 1015.08 1013.12 1011.63 1012.08 1012.76 1012.46 1012.25 1013.79 1014.17 1014.12 1013.93 1014.51 1014.90 1015.47 1015.38
1022.64 1022.45 1022.27 1022.03 1021.67 1021.35 1021.54 1022.30 1022.90 1023.00 1021.99 1021.37 1021.44 1020.94 1020.05 1019.71 1019.14 1018.51 1018.32 1018.44 1018.80 1018.71 1018.69 1018.80 1018.32 1018.16 1017.87 1017.63 1017.54 1016.69 1015.16 1013.50 1012.44 1012.54 1012.41 1012.78 1013.31 1013.71 1014.02 1014.29 1014.59 1014.84 1015.16 1016.42 1016.56
1022.50 1022.36 1022.10 1021.77 1021.71 1022.12 1022.74 1023.34 1023.31 1023.06 1022.59 1021.68 1021.32 1020.80 1020.12 1019.70 1019.55 1019.04 1019.21 1019.02 1019.25 1018.98 1019.14 1018.97 1018.53 1018.30 1017.60 1017.60 1016.87 1015.93 1015.14 1014.13 1013.27 1013.33 1013.95 1013.65 1014.06 1014.61 1014.87 1015.23 1014.98 1015.33 1015.79 1016.46 1016.26
1022.41 1022.34 1022.18 1021.65 1022.33 1022.72 1023.15 1023.36 1023.34 1022.88 1023.62 1022.41 1021.34 1020.70 1020.18 1020.05 1019.80 1019.29 1019.48 1019.73 1019.45 1019.48 1019.25 1018.72 1018.35 1017.62 1016.99 1016.88 1016.50 1015.70 1014.77 1013.82 1013.70 1013.55 1014.16 1013.86 1015.41 1015.67 1016.03 1015.90 1016.08 1016.11 1016.28 1016.18 1016.40
1022.21 1022.23 1022.29 1021.85 1022.56 1023.12 1023.40 1023.28 1023.39 1023.22 1023.82 1023.18 1021.70 1020.60 1020.37 1020.52 1021.38 1019.62 1019.78 1019.57 1020.00 1020.02 1020.03 1019.59 1018.40 1017.78 1017.04 1016.89 1016.14 1015.78 1014.19 1014.32 1014.39 1014.08 1014.81 1014.86 1015.66 1017.49 1016.62 1017.13 1017.10 1017.19 1017.04 1016.54 1016.48
1022.11 1022.09 1022.24 1022.45 1023.10 1023.20 1023.25 1023.21 1023.74 1024.52 1024.87 1023.66 1022.94 1022.25 1021.59 1021.47 1021.93 1021.09 1020.44 1020.25 1020.34 1020.14 1020.08 1019.91 1018.98 1018.82 1018.75 1017.05 1015.92 1015.54 1015.52 1015.44 1015.54 1015.43 1016.15 1016.85 1016.85 1018.56 1018.41 1018.67 1018.06 1017.95 1017.47 1017.40 1016.80
1022.02 1021.96 1022.40 1022.60 1023.25 1023.06 1023.33 1024.11 1025.53 1025.61 1025.91 1024.98 1024.11 1023.82 1023.20 1023.37 1023.40 1022.77 1022.71 1022.48 1022.40 1021.93 1021.80 1020.77 1019.96 1019.42 1018.98 1018.07 1016.42 1016.02 1016.35 1017.12 1017.20 1017.51 1018.33 1017.73 1018.48 1019.99 1019.63 1019.53 1019.41 1019.09 1018.89 1018.62 1017.86
1022.05 1022.10 1022.53 1022.66 1023.13 1022.95 1023.73 1024.99 1027.14 1027.05 1026.56 1025.81 1025.25 1024.99 1024.47 1024.35 1024.87 1024.48 1024.15 1024.20 1023.69 1023.26 1023.32 1023.12 1021.19 1020.59 1020.19 1020.08 1019.54 1018.39 1018.00 1018.72 1019.62 1020.56 1020.19 1019.31 1020.65 1021.11 1020.38 1020.18 1020.00 1020.01 1019.64 1019.05 1018.33
1022.08 1022.90 1023.15 1023.29 1023.15 1023.24 1024.43 1026.39 1027.16 1027.35 1026.56 1026.38 1026.11 1026.21 1026.17 1025.90 1026.02 1026.14 1025.82 1025.59 1024.83 1024.18 1023.90 1023.77 1022.48 1021.27 1020.68 1020.47 1020.31 1019.54 1019.27 1019.37 1020.24 1021.77 1021.19 1021.87 1021.61 1020.97 1020.88 1020.37 1020.36 1020.50 1020.28 1019.97 1019.45
1022.85 1023.39 1023.71 1023.61 1023.43 1024.01 1025.91 1027.43 1027.58 1027.33 1026.61 1026.60 1027.01 1027.44 1027.84 1027.62 1027.01 1027.43 1027.01 1026.21 1025.54 1024.94 1024.45 1024.06 1023.86 1022.43 1021.21 1020.38 1020.25 1020.10 1020.22 1020.40 1020.49 1021.67 1022.35 1022.23 1021.97 1022.04 1021.81 1021.56 1021.24 1020.99 1021.06 1020.76 1020.26
1022.85 1023.89 1023.98 1023.77 1023.74 1025.13 1027.47 1028.08 1027.60 1027.22 1026.57 1026.69 1027.00 1027.32 1027.75 1028.00 1028.04 1027.98 1027.90 1026.72 1025.95 1025.15 1024.58 1024.01 1024.08 1023.29 1022.12 1022.22 1022.18 1021.55 1020.97 1021.16 1021.63 1022.10 1022.28 1022.93 1023.18 1022.51 1022.63 1022.68 1022.63 1022.39 1022.15 1021.78 1021.38
1022.95 1024.49 1024.08 1024.01 1025.59 1027.76 1028.48 1028.01 1027.32 1026.98 1026.58 1026.71 1026.73 1026.89 1027.04 1027.62 1028.06 1028.29 1027.81 1027.09 1026.22 1025.56 1025.10 1024.55 1024.40 1024.66 1024.06 1023.03 1022.54 1022.35 1022.33 1022.32 1022.56 1022.81 1022.71 1022.64 1023.59 1023.18 1023.26 1023.37 1023.39 1023.33 1023.05 1022.74 1022.39
1023.61 1024.34 1024.64 1024.16 1026.05 1028.38 1028.87 1028.41 1027.69 1026.90 1026.33 1026.56 1026.63 1026.43 1026.73 1027.24 1027.91 1027.68 1027.72 1026.81 1026.36 1025.96 1025.62 1025.22 1025.58 1025.76 1025.35 1024.69 1023.44 1023.03 1022.67 1022.51 1022.71 1022.90 1023.13 1023.34 1023.79 1023.61 1023.79 1023.95 1024.07 1023.94 1023.67 1023.34 1023.02
1023.53 1024.85 1025.46 1025.28 1025.77 1026.86 1028.59 1028.66 1027.88 1026.74 1026.23 1026.17 1026.37 1026.09 1026.82 1027.46 1027.90 1027.38 1027.54 1026.99 1026.68 1026.13 1025.82 1025.80 1026.65 1026.99 1026.83 1026.28 1025.37 1024.26 1023.53 1022.83 1022.95 1023.47 1023.61 1023.71 1024.02 1024.49 1024.64 1024.58 1024.47 1024.33 1023.98 1023.79 1023.60
1022.86 1023.65 1023.82 1025.52 1025.95 1026.51 1026.90 1027.39 1027.05 1026.60 1026.13 1026.01 1026.23 1025.90 1026.22 1027.15 1027.85 1027.37 1027.64 1027.22 1027.02 1026.71 1026.79 1027.27 1028.42 1029.02 1028.61 1027.94 1027.02 1025.55 1024.50 1023.86 1023.50 1023.46 1023.81 1024.22 1024.50 1025.00 1025.13 1025.21 1025.05 1024.73 1024.13 1023.87 1023.77
1022.06 1022.94 1023.81 1024.58 1024.57 1025.65 1026.11 1026.67 1025.58 1025.55 1025.35 1025.73 1025.57 1025.39 1025.92 1026.14 1026.56 1026.84 1026.92 1027.75 1027.58 1027.59 1027.98 1028.51 1030.20 1030.75 1030.51 1029.35 1028.23 1026.99 1025.32 1024.51 1024.16 1023.84 1024.02 1024.34 1024.73 1024.79 1025.14 1025.46 1025.46 1025.26 1024.92 1024.74 1024.57
1020.64 1021.26 1021.39 1023.67 1024.62 1024.93 1024.64 1024.73 1024.35 1024.07 1024.81 1024.52 1024.68 1025.20 1025.55 1025.94 1026.21 1026.64 1026.92 1027.52 1028.05 1028.39 1029.19 1030.00 1031.35 1032.69 1032.55 1031.02 1029.17 1027.83 1025.72 1024.76 1024.29 1024.10 1024.07 1024.48 1024.53 1024.75 1025.12 1025.24 1025.35 1025.38 1025.26 1025.25 1025.18
Wind_Speed
7 9 10 10 10 11 12 12 13 14 14 15 15 15 16 15 14 4 2 5 4 8 5 4 4 4 1 1 3 1 3 14 22 19 7 3 5 1 1 6 2 3 1 5 15
8 9 10 11 11 12 12 13 13 14 14 14 15 15 14 13 4 3 4 7 3 6 4 6 6 6 3 2 3 4 4 13 14 12 8 7 6 7 4 4 1 3 3 13 18
8 9 11 12 13 13 13 14 14 14 15 14 14 13 13 5 2 3 4 9 6 2 1 2 3 1 2 3 4 4 6 8 12 12 13 13 5 4 7 3 4 6 7 12 12
7 9 11 13 14 14 15 14 16 15 14 14 12 11 7 2 3 4 6 7 11 1 2 2 1 3 4 5 3 5 9 8 9 16 8 17 6 5 4 2 4 7 9 14 16
7 9 11 13 14 15 16 16 16 16 15 14 11 5 4 5 5 6 7 9 6 1 4 6 8 5 7 3 2 6 5 8 12 14 13 21 15 8 7 2 4 6 13 12 12
7 9 11 13 15 16 17 17 17 17 16 14 7 4 3 2 3 4 6 6 6 7 7 6 2 4 7 5 3 2 6 5 7 12 13 22 5 10 4 1 2 11 9 8 10
7 9 12 14 15 17 18 19 18 20 14 6 2 3 3 7 4 7 7 3 4 4 5 8 5 8 2 3 4 4 5 9 10 13 14 13 6 5 3 4 5 12 11 10 6
8 10 12 14 16 18 20 20 20 13 8 5 8 2 5 4 6 7 3 5 3 2 1 3 5 3 5 2 5 3 3 6 9 12 16 16 6 6 4 11 7 8 7 11 11
9 10 13 15 16 18 20 20 13 9 5 7 3 2 6 7 6 7 2 3 5 3 4 3 1 2 5 2 3 3 6 9 3 28 7 2 10 7 5 9 8 7 9 8 10
9 11 13 14 15 18 20 14 5 4 4 3 1 1 4 6 6 7 5 2 2 3 2 2 2 1 1 1 4 8 6 3 8 13 7 4 9 9 6 9 8 6 9 9 9
9 10 13 14 14 16 10 4 7 4 9 2 4 2 6 9 4 2 4 4 1 1 2 4 1 1 4 3 6 8 12 3 9 11 12 7 9 10 4 1 6 6 7 8 10
8 9 11 13 13 11 4 6 2 2 2 1 5 5 5 1 4 5 7 5 6 5 6 3 2 5 4 1 3 4 9 10 11 18 15 10 15 11 11 6 5 7 8 5 4
6 8 11 12 4 6 4 2 2 2 4 4 4 4 5 3 3 7 6 3 4 5 8 2 7 1 3 2 3 3 4 3 8 9 10 2 13 9 4 4 7 6 5 1 3
5 7 9 7 4 1 2 4 1 2 7 5 3 3 3 1 3 2 3 1 5 4 7 2 3 2 3 1 2 4 8 3 8 2 5 4 6 10 4 6 5 7 7 6 3
4 5 6 6 4 3 1 2 2 4 5 4 8 5 6 8 6 3 3 4 3 4 3 6 11 10 7 5 2 2 6 6 3 7 3 11 9 7 8 12 10 8 8 7 7
1 3 2 3 2 1 1 2 4 10 6 4 4 7 4 8 9 8 5 5 1 4 4 1 4 4 4 7 5 2 4 6 3 3 6 6 3 8 7 6 6 9 10 9 7
0 1 3 2 1 2 3 4 8 6 4 6 2 5 0 7 8 9 7 10 8 7 9 9 5 7 4 6 8 10 6 4 7 8 2 8 10 1 6 6 5 7 10 9 9
3 6 3 2 1 3 4 8 4 2 5 2 2 2 4 6 4 9 4 6 6 4 4 4 9 9 10 5 4 5 3 5 5 3 1 7 6 6 6 5 5 5 5 10 12
7 2 2 2 2 3 7 6 8 7 3 4 2 6 5 3 3 5 4 3 4 7 4 5 6 5 1 3 2 7 6 2 8 2 5 2 2 1 8 12 11 10 11 13 12
3 2 1 4 2 5 7 5 3 4 1 1 3 3 2 5 5 6 4 3 5 3 3 3 4 4 6 4 3 5 2 4 5 4 4 3 4 2 9 10 11 12 12 11 12
4 3 3 2 4 6 4 7 3 5 1 2 4 4 2 3 3 2 4 1 3 6 4 1 5 7 3 6 3 7 5 4 4 2 5 4 1 3 2 5 6 8 8 8 10
4 1 3 1 6 1 4 7 3 3 2 1 2 2 4 4 3 2 1 2 6 2 2 3 2 3 1 1 2 3 1 1 4 3 2 3 2 2 4 4 4 7 7 7 7
4 3 2 3 4 1 1 2 2 4 4 4 2 2 1 3 4 4 2 3 5 5 1 3 3 3 8 6 4 4 2 3 1 2 1 5 4 3 6 6 6 6 7 7 7
4 2 4 4 1 9 6 3 2 2 3 3 3 3 3 2 3 5 2 1 4 4 4 1 3 3 5 3 2 1 1 2 4 3 2 1 5 4 6 7 7 6 6 5 6
2 5 4 5 3 5 5 4 6 5 1 4 1 3 6 4 1 3 1 2 1 7 3 4 4 2 2 4 4 3 1 3 2 3 4 0 3 0 1 2 4 5 7 11 11
7 6 2 2 5 8 6 8 10 5 8 5 5 7 4 5 5 7 6 3 4 4 3 3 3 2 3 4 5 4 4 2 2 1 2 1 1 2 0 2 4 6 7 8 7
3 1 4 7 5 6 8 8 11 11 3 3 7 6 6 5 5 5 5 6 3 2 2 4 4 4 5 5 4 6 7 5 3 2 6 5 4 4 3 4 3 5 6 5 6
Wind_Direction
346 345 342 341 342 340 339 339 340 338 335 332 332 329 331 332 336 12 50 202 254 359 351 322 51 353 330 262 266 337 249 235 246 231 266 164 172 217 56 130 102 141 51 118 141
340 337 333 334 337 335 334 334 335 333 329 330 328 329 331 340 354 310 227 229 1 4 22 17 349 350 337 255 232 187 222 240 241 263 257 234 176 176 148 155 165 161 63 137 152
332 331 331 332 335 334 332 332 331 329 330 330 329 331 329 16 354 290 247 224 274 91 329 300 295 238 234 228 217 227 229 259 269 295 316 261 205 140 135 215 196 193 151 170 163
329 332 332 334 334 332 329 331 327 326 325 325 327 326 344 357 23 261 246 287 288 228 194 242 164 230 216 219 199 240 235 255 289 255 299 296 205 114 117 246 292 246 155 173 174
327 333 333 332 331 329 326 329 326 320 321 317 317 338 26 9 256 262 301 319 319 264 247 268 252 213 228 210 255 228 270 279 285 251 262 287 223 148 120 300 330 114 136 167 170
332 329 331 330 328 327 324 326 323 317 314 308 297 129 80 322 276 314 326 292 263 253 265 225 229 259 296 264 213 315 297 280 297 250 259 265 202 116 184 106 34 82 114 155 153
327 328 328 327 327 325 323 322 320 317 311 301 240 123 114 229 293 313 289 262 287 295 292 259 201 228 274 257 320 316 295 279 248 220 252 230 158 100 230 180 103 95 79 60 129
323 326 324 326 326 324 321 319 320 317 309 278 139 105 250 251 291 306 318 314 306 9 304 316 130 315 234 351 358 295 262 239 166 192 253 219 133 105 171 135 88 70 83 80 47
317 323 323 325 326 322 318 316 319 324 328 120 96 165 287 312 347 311 307 310 317 39 45 71 137 342 204 282 261 242 255 187 260 201 215 278 129 143 104 108 87 67 52 34 47
314 321 323 326 328 325 322 321 316 23 23 74 62 30 330 311 301 329 316 290 2 110 31 238 192 185 7 166 285 329 316 263 241 132 145 310 89 87 60 74 73 79 70 32 35
315 324 324 329 332 336 347 11 20 354 41 44 310 252 285 301 282 293 322 336 142 128 29 298 242 285 218 216 300 328 316 87 64 81 76 151 84 85 81 246 49 36 66 60 19
321 326 326 324 325 348 46 66 72 190 350 192 271 277 264 255 315 316 9 35 40 359 340 345 1 320 236 235 323 302 285 17 44 91 83 65 63 33 24 32 13 26 37 58 93
318 325 327 327 35 42 62 69 314 157 84 308 286 286 303 19 316 304 26 331 23 354 338 67 354 106 288 59 304 342 74 123 55 78 128 107 82 63 11 346 12 19 24 81 7
308 331 337 345 31 122 48 336 21 152 70 305 306 281 321 327 342 288 9 69 21 335 327 359 317 269 267 65 229 111 240 162 142 86 65 296 91 31 2 36 55 13 286 270 120
299 325 350 48 154 64 321 356 146 42 36 306 306 302 329 73 299 15 355 1 52 313 344 285 345 352 8 331 329 330 318 28 1 99 95 2 79 355 39 58 31 10 8 355 24
292 340 23 43 38 79 8 94 47 43 259 347 315 346 16 32 348 321 350 17 78 352 357 302 280 44 289 306 345 325 68 34 32 16 56 353 64 27 14 340 351 351 9 354 30
165 26 83 108 187 72 76 43 36 126 351 295 343 344 331 22 351 20 7 28 29 28 5 329 3 332 40 343 1 27 47 0 12 29 29 357 54 21 344 360 352 350 352 2 20
43 115 39 79 88 105 58 50 89 235 230 303 309 289 70 35 25 357 27 21 359 36 71 7 352 4 340 51 319 334 38 130 133 94 301 12 39 357 332 347 18 29 1 20 33
119 17 41 11 89 64 74 66 206 202 168 174 6 56 348 50 68 15 40 358 322 357 81 14 311 318 358 320 33 329 30 293 107 60 77 358 57 198 359 22 21 24 31 28 22
89 68 36 339 79 66 73 235 177 219 119 50 140 107 147 311 65 44 355 306 324 346 330 67 334 316 305 7 360 60 306 24 0 69 65 26 57 53 350 350 356 14 17 17 22
76 65 279 75 58 51 161 220 214 233 132 164 177 115 165 144 107 80 272 3 347 310 308 94 127 295 33 31 13 351 8 24 113 69 139 133 233 221 336 338 346 2 12 16 17
118 77 290 64 62 33 153 186 203 167 167 245 124 115 141 163 104 88 190 295 335 277 358 340 77 70 67 33 163 167 95 25 109 280 33 93 209 114 13 38 36 20 10 15 23
135 143 313 105 140 269 240 284 242 144 170 173 162 165 184 118 94 132 262 282 346 17 60 339 354 37 348 347 356 50 13 113 80 42 313 112 235 158 17 51 26 40 19 10 8
105 111 333 55 85 136 147 230 215 287 161 165 136 114 103 81 341 146 192 327 332 351 348 224 86 149 175 206 293 316 13 124 106 83 202 210 125 1 10 16 1 14 23 16 23
66 229 192 199 242 148 118 130 138 170 270 185 1 192 169 121 357 146 249 296 247 346 18 76 107 18 63 26 327 302 301 345 186 153 141 92 90 268 7 37 353 341 15 25 17
144 150 28 146 117 116 182 223 163 163 147 227 192 173 172 150 182 183 135 157 219 352 57 15 145 81 325 351 14 295 272 260 286 147 230 275 220 176 79 99 43 32 28 20 1
159 39 118 154 144 118 203 187 193 138 246 215 162 128 156 185 129 102 93 91 110 131 100 60 112 65 272 337 353 345 229 183 180 174 144 176 172 167 126 113 74 45 38 17 352